Regional Weather Roundup
Issued by NWS Cleveland, OH

Home | Current Version | Previous Version | Text Only | Print | Product List | Glossary Off
Versions: 1 2 3 4 5 6 7 8 9 10 11 12 13 14 15 16 17 18 19 20 21 22 23 24 25 26 27 28 29 30 31 32 33 34 35 36 37 38 39 40 41 42 43 44 45 46 47 48 49 50

000
ASUS41 KCLE 272210
RWRCLE
OHIO REGIONAL WEATHER ROUNDUP
NATIONAL WEATHER SERVICE CLEVELAND, OH
500 PM EST TUE JAN 27 2015

NOTE: "FAIR" INDICATES FEW OR NO CLOUDS BELOW 12,000 FEET WITH NO
SIGNIFICANT WEATHER AND/OR OBSTRUCTIONS TO VISIBILITY.

OHZ001>008-015>018-024>027-034-035-043-044-272300-
   NORTHWEST OHIO

CITY           SKY/WX    TMP DP  RH WIND       PRES   REMARKS
DEFIANCE       CLEAR     27  10  49 NW5       30.16R WCI  22
FINDLAY        CLEAR     23  10  57 NW8       30.14R WCI  14
TOLEDO EXPRESS CLEAR     26  11  52 NW9       30.15R WCI  17
TOLEDO EXEC    MOCLDY    27  12  53 N6        30.16R WCI  20
LIMA           CLEAR     22  11  62 NW8       30.14R WCI  12
$$

OHZ009>014-019>023-028>033-038-089-272300-
   NORTHEAST OHIO

CITY           SKY/WX    TMP DP  RH WIND       PRES   REMARKS
CLE-HOPKINS    MOCLDY    18  10  71 N9        30.14R WCI   7
CLE-LAKEFRONT  CLEAR     18  10  71 NW3       30.13R
CUY CO. ARPT   MOCLDY    19  12  73 N9        30.10R WCI   9
LORAIN-ELYRIA  CLEAR     19  10  68 N14       30.13R WCI   6
ASHTABULA      FLURRIES  18  12  77 N6        30.08R WCI  10
AKRON-CANTON   FLURRIES  19  10  68 N7        30.06R WCI  10
WOOSTER        CLEAR     17   8  67 NW10      30.09R WCI   5
MANSFIELD      CLEAR     16   8  71 NW12      30.09R WCI   3
YOUNGSTOWN     LGT SNOW  19  13  77 N12       30.04R WCI   7
$$

OHZ042-051>053-060>062-070>072-077>081-272300-
  SOUTHWEST OHIO

CITY           SKY/WX    TMP DP  RH WIND       PRES   REMARKS
CINC-COVINGTON CLEAR     30  14  51 N10       30.12R WCI  21
CINC-LUNKEN    CLEAR     28   9  44 N12       30.16R WCI  18
HAMILTON       CLEAR     26  13  57 N12       30.16R WCI  16
DAYTON         PTCLDY    22  12  65 N10       30.15R WCI  11
WRIGHT-PAT AFB PTCLDY    22  12  64 N6        30.15R WCI  15
DAYTON GENERAL CLEAR     24  13  62 NW10      30.12R WCI  14
WILMINGTON     CLEAR     23  12  62 N10       30.11R WCI  12
$$

OHZ036-037-039>041-045>050-054>059-063>069-073>076-082>088-272300-
  CENTRAL AND SOUTHEAST OHIO

CITY           SKY/WX    TMP DP  RH WIND       PRES   REMARKS
COLUMBUS       PTCLDY    22  11  62 NW16      30.12R WCI   8
OSU AIRPORT    PTCLDY    20  11  68 NW13G22   30.12R WCI   7
BOLTON FIELD   CLEAR     19  12  73 NW12      30.13R WCI   7
RICKENBACK AFB MOCLDY    22  13  66 NW12      30.12R WCI  11
NEWARK         CLOUDY    22  12  65 N9        30.11R WCI  12
MARION         PTCLDY    20  10  65 NW10      30.13R WCI   9
LANCASTER      CLOUDY    22  14  71 N6        30.11R WCI  14
ZANESVILLE     LGT SNOW  21  14  74 NW6       30.09R WCI  13
NEW PHILLY     CLOUDY    21  12  68 NW10      30.09R WCI  10
$$


USA.gov is the U.S. government's official web portal to all federal, state and local government web resources and services.